Погода в Лагани

Погода в Лагани : погода сейчас, прогноз погоды и архив. Всё, что Вы хотите узнать о погоде в Лагани!

Поиск расширенной информации на нашем сайте:

Другие новости

Новости СМИ2

Главная страница сайта

Новости сайта

03.07.2017

Напоминаем, что на нашем специализированном сайте Метеоцентр.Азия вы можете получить высокодетализированные автоматические прогнозы погоды по пунктам России, СНГ и мира в авиационном формате (включающие направление и скорость ветра, видимость, явления погоды, количество и форму облачности, нижнюю и верхнюю границу облачности).


Погода в Лагани - сегодня

Время (UTC), дата Ветер
(°,м/с) 
Видим.   Явления Облачность Т
(°С)
Тd
(°С)
f(%) Тe
(°С)
Pmin
(гПа)
dP
(гПа)
Po
(мм)
O2
(г/м3)
Тmin Tmax R s Состояние
почвы
09 16.08.18 080 (В) 7-11{11}  20000 м    3/0 верхняя 
[Ci sp]
+30.9 +7.8 24 +31  1016.6  -0.6  764  275           
12 16.08.18 080 (В) 6-10{12}  20000 м    1/0 верхняя 
[Ci sp]
+30 +10 29 +31  1015.8  -0.8  764  276           
15 16.08.18 060 (СВ) 5{10}  20000 м    1/0 верхняя 
[Ci sp]
+27.3 +13.6 43 +33  1015.4  -0.4  763  277    +31.6       
18 16.08.18 050 (СВ) 20000 м    ясно 
+22 +15.9 68 +32  1015.4  0.1  764  281           
21 16.08.18 010 (С) 10 км    ясно 
+18.4 +15.4 83 +28  1014.5  -0.9  763  285           
00 17.08.18 030 (СВ) 10 км    ясно 
+17.8 +14.6 82 +26  1013.7  -0.8  762  285           
03 17.08.18 030 (СВ) 10 км    3/0 верхняя 
[Ci sp]
+18.3 +14.9 81 +27  1013.6  -0.1  762  285  +17        сухая 
06 17.08.18 060 (СВ) 20000 м    3/0 верхняя 
[Ci sp]
+29.1 +12.7 36 +34  1013.3  -0.4  762  275           
09 17.08.18 060 (СВ) 6{10}  20000 м    4/0 верхняя 
[Ci sp]
+33 +8.1 21 +33  1012.4  -0.9  761  272           
12 17.08.18 080 (В) 20000 м    3/0 верхняя 
[Ci sp]
+32.6 +11 27 +35  1011.4  -1  760  272           
15 17.08.18 060 (СВ) 20000 м    3/0 верхняя 
[Ci sp]
+29.2 +11 32 +31  1010.9  -0.5  760  275    +33.8       
18 17.08.18 тихо ()   20000 м    4/0 средняя, верхняя 
[Ac trans|Ci sp]
+22 +14.2 61 +29  1010.6  -0.2  760  281           
21 17.08.18 300 (СЗ) 20000 м    ясно 
+18.2 +11.4 64 +22  1010.3  -0.3  760  285           
00 18.08.18 280 (З) 20000 м    ясно 
+17.5 +9.1 58 +18  1009.4  -0.9  759  286           
03 18.08.18 330 (СЗ) 20000 м    ясно 
+18.3 +7.8 50 +19  1009.8  0.4  759  285  +16        сухая 
06 18.08.18 340 (С) 20000 м    3/0 средняя 
[Ac trans]
+29.9 +5.3 21 +30  1009.6  -0.3  759  275           
09 18.08.18 360 (С) 20000 м    4/0 средняя, верхняя 
[Ac trans|Ci fib]
+34.6 +2.2 13 +35  1008.6  -1  758  271           
12 18.08.18 060 (СВ) 6-11{11}  20000 м    4/3 1000 м верхняя 
[Cu hum|Ci sp]
+33 +9.4 23 +33  1008.3  -0.3  758  271           
15 18.08.18 110 (В) 2{11}  20000 м    8/0 средняя, верхняя 
[Ac cuf|Ci sp]
+30.2 +14.2 38 +37  1009.4  1.1  759  273    +35.2       
18 18.08.18 330 (СЗ) 20000 м    8/0 верхняя 
[Ci sp]
+25.6 +15.5 54 +35  1010.7  1.3  760  277           
21 18.08.18 030 (СВ) 20000 м    ясно 
+21.4 +11 51 +24  1011.4  0.8  761  282           
00 19.08.18 360 (С) 20000 м    6/0 верхняя 
[Ci fib]
+20.5 +6.1 39 +21  1011.9  0.5  761  284           
03 19.08.18 010 (С) 20000 м  слаб. ливневой дождь  8/4 1000 м кучево-дожд., средняя 
[Cb cap|Ac cuf]
+18.3 +7.1 48 +18  1013.5  1.6  762  287  +17.9    0.0     
06 19.08.18 020 (С) 6-10{12}  10 км  пыльный позёмок  3/3 1000 м 
[Cu med, cong]
+23.7 +5.9 32 +24  1014.2  0.7  763  282           
09 19.08.18 350 (С) 5{12}  10 км  пыльный позёмок  ясно 
+26.3 +5.2 26 +26  1014.3  763  280           
Время (UTC), дата Ветер
(°,м/с) 
Видим.   Явления Облачность Т
(°С)
Тd
(°С)
f(%) Тe
(°С)
Pmin
(гПа)
dP
(гПа)
Po
(мм)
O2
(г/м3)
Тmin Tmax R s Состояние
почвы

Для получения пояснительной информации подведите курсор к названию столбца.

ПОГОДА в Лагани - архив

Всё, что Вы хотите узнать о погоде в Лагани - удобно и подробно!

Выберите нужную дату (начиная с 1 января 2015* года) и нажмите кнопку "Найти".
Будут отображены архивные сводки погоды по пункту Лагань, начиная с указанной даты.


Отображать данные в формате CSV (для использования в таблицах Excel)


Внимание! Наш архив погоды предназначен исключительно для личного некоммерческого использования в познавательных целях. Если Вам необходимы официальные справки о состоянии погоды (для производственных, юридических, коммерческих и т.п. целей), обращайтесь в органы Росгидромета.

*Примечание: данная дата относится к архиву по метеостанциям СССР (Россия, СНГ, Балтия).
Архив по метеостанциям Зарубежной Европы и Азии (кроме Китая) хранится 10 дней, по другим регионам земного шара (Китай, Африка, Америка, Австралия, Океания) - 1 день.

Лагань - район местоположения метеостанции


Название, широта, долгота, высота метеостанции:
Лагань 45.4°ш. 47.3°д. -24 м над ур. моря [Российская Федерация]

Дополнительная информация

В oтличие oт бoльшинства пoгoдных сайтoв мы публикуем пoдрoбную метеoинфoрмацию в детальнoм прoфессиoнальнoм фoрмате.

Характеристики температуры и влажнoсти вoздуха измеряются на высoте 2 м в тени вдали oт зданий и деревьев.
Скoрoсть ветра измеряется на высoте 10 м (на урoвне рoста челoвека скoрoсть ветра ниже в 1.5-2 раза). Если метеoстанция нахoдится в гoрoде или в лесу, тo скoрoсть ветра занижена на 2-4 м/с пo сравнению с oткрытым местoм. Скoрoсть ветра над акватoриями крупных рек и oзёр, а также на вершинах хoлмoв на 2-5 м/с выше, чем в oбычных услoвиях.
Атмoсфернoе давление в разных тoчках местнoсти мoжет значительнo oтличаться oт давления на метеoстанции, в зависимoсти oт услoвий рельефа (при пoдъёме на 10 м давление пoнижается примернo на 1 мм рт.ст.).